logo tempoitalia

Diretta Meteo Columbia-Maury Co, Stati Uniti (USA)lunedì 31 agosto ore 01:35

Mappa
Sereno 22 °C Sereno 24 Ore: T.min 20 T.max 34
Ponente Nord Km/h 0 Punto di rugiada: 22 °C Umidità: 100% Visibilità: 10 Km
Il sole sorge alle: 06:20 Il sole tramonta alle: 19:17
31 Agosto 2026 01:35 tempo osservato: Sereno Sereno 22 100 1018 vento: Nord N 0
31 Agosto 2026 01:10 tempo osservato: Sereno Sereno 22 100 1018 vento: Nord N 0
31 Agosto 2026 00:50 tempo osservato: Sereno Sereno 22 100 1018 vento: Nord N 0
31 Agosto 2026 00:35 tempo osservato: Sereno Sereno 22 100 1018 vento: Nord N 0
31 Agosto 2026 00:10 tempo osservato: Sereno Sereno 23 100 1018 vento: Nord N 0
30 Agosto 2026 23:50 tempo osservato: Sereno Sereno 23 100 1018 vento: Nord N 0
30 Agosto 2026 23:35 tempo osservato: Sereno Sereno 23 100 1018 vento: Nord N 0
30 Agosto 2026 23:10 tempo osservato: Sereno Sereno 23 100 1018 vento: Nord N 0
30 Agosto 2026 22:55 tempo osservato: Sereno Sereno 23 100 1018 vento: Nord N 0
30 Agosto 2026 22:35 tempo osservato: Sereno Sereno 24 100 1018 vento: Nord N 0
30 Agosto 2026 22:10 tempo osservato: Sereno Sereno 24 100 1018 vento: Nord N 0
30 Agosto 2026 21:50 tempo osservato: Sereno Sereno 24 100 1018 vento: Nord N 0
30 Agosto 2026 21:35 tempo osservato: Sereno Sereno 24 100 1018 vento: Nord N 0
30 Agosto 2026 21:10 tempo osservato: Sereno Sereno 25 100 1018 vento: Nord N 5.5
30 Agosto 2026 20:50 tempo osservato: Sereno Sereno 26 94 1018 vento: Nord N 5.5
30 Agosto 2026 20:35 tempo osservato: Sereno Sereno 25 100 1018 vento: Nord N 0
30 Agosto 2026 20:10 tempo osservato: Sereno Sereno 26 100 1018 vento: Nord N 0
30 Agosto 2026 19:50 tempo osservato: Sereno Sereno 27 88 1017 vento: Nord N 0
30 Agosto 2026 19:30 tempo osservato: Sereno Sereno 28 78 1017 vento: Nord N 0
30 Agosto 2026 19:10 tempo osservato: Sereno Sereno 30 66 1017 vento: Nord N 0
30 Agosto 2026 18:50 tempo osservato: Sereno Sereno 31 55 1017 vento: Nord N 0
30 Agosto 2026 18:35 tempo osservato: Sereno Sereno 31 55 1017 vento: Nord N 0
30 Agosto 2026 18:10 tempo osservato: Sereno Sereno 32 52 1017 vento: Nord S 7.4
30 Agosto 2026 17:50 tempo osservato: Sereno Sereno 33 46 1017 vento: Nord S 9.3
30 Agosto 2026 17:35 tempo osservato: Sereno Sereno 33 46 1017 vento: Nord S/SO 11.1
30 Agosto 2026 17:10 tempo osservato: Sereno Sereno 33 46 1017 vento: Nord S/SE 7.4
30 Agosto 2026 16:50 tempo osservato: Sereno Sereno 34 43 1017 vento: Nord SE 11.1
30 Agosto 2026 16:35 tempo osservato: Poco Nuvoloso Poco Nuvoloso 34 43 1017 vento: Nord N 0
30 Agosto 2026 16:10 tempo osservato: Sereno Sereno 33 43 1017 vento: Nord S 11.1
30 Agosto 2026 15:50 tempo osservato: Sereno Sereno 34 41 1017 vento: Nord S/SO 13
30 Agosto 2026 15:35 tempo osservato: Sereno Sereno 34 43 1017 vento: Nord N 11.1
30 Agosto 2026 15:10 tempo osservato: Sereno Sereno 34 43 1018 vento: Nord S/SO 13
30 Agosto 2026 14:50 tempo osservato: Sereno Sereno 34 43 1018 vento: Nord S/SO 16.7
30 Agosto 2026 14:35 tempo osservato: Poco Nuvoloso Poco Nuvoloso 33 46 1018 vento: Nord S 9.3
30 Agosto 2026 14:10 tempo osservato: Poco Nuvoloso Poco Nuvoloso 33 49 1019 vento: Nord S/SO 16.7
30 Agosto 2026 13:50 tempo osservato: Poco Nuvoloso Poco Nuvoloso 33 49 1019 vento: Nord S 7.4
30 Agosto 2026 13:35 tempo osservato: Poco Nuvoloso Poco Nuvoloso 32 52 1019 vento: Nord S 11.1
30 Agosto 2026 13:10 tempo osservato: Poco Nuvoloso Poco Nuvoloso 33 49 1019 vento: Nord S 11.1
30 Agosto 2026 12:50 tempo osservato: Nuvoloso Nuvoloso 33 52 1019 vento: Nord S/SE 13
30 Agosto 2026 12:35 tempo osservato: Nuvoloso Nuvoloso 32 55 1020 vento: Nord S 11.1
30 Agosto 2026 12:10 tempo osservato: Sereno Sereno 32 55 1020 vento: Nord S 13
30 Agosto 2026 11:50 tempo osservato: Poco Nuvoloso Poco Nuvoloso 32 55 1020 vento: Nord SE 16.7
30 Agosto 2026 11:35 tempo osservato: Molto Nuvoloso Molto Nuvoloso 31 62 1020 vento: Nord S 11.1
30 Agosto 2026 11:10 tempo osservato: Poco Nuvoloso Poco Nuvoloso 30 66 1020 vento: Nord S 13
30 Agosto 2026 10:50 tempo osservato: Sereno Sereno 31 62 1020 vento: Nord S 13
30 Agosto 2026 10:35 tempo osservato: Sereno Sereno 30 70 1020 vento: Nord S/SO 11.1
30 Agosto 2026 10:10 tempo osservato: Sereno Sereno 30 70 1020 vento: Nord S/SO 14.8
30 Agosto 2026 09:50 tempo osservato: Sereno Sereno 29 79 1020 vento: Nord S 9.3
30 Agosto 2026 09:35 tempo osservato: Sereno Sereno 28 83 1020 vento: Nord N 9.3
30 Agosto 2026 09:10 tempo osservato: Sereno Sereno 27 94 1020 vento: Nord S/SO 13
30 Agosto 2026 08:50 tempo osservato: Sereno Sereno 27 100 1020 vento: Nord S/SO 16.7
30 Agosto 2026 08:35 tempo osservato: Sereno Sereno 26 100 1020 vento: Nord N 0
30 Agosto 2026 08:10 tempo osservato: Sereno Sereno 24 100 1020 vento: Nord N 0
30 Agosto 2026 07:50 tempo osservato: Sereno Sereno 23 100 1020 vento: Nord N 0
30 Agosto 2026 07:35 tempo osservato: Sereno Sereno 22 100 1020 vento: Nord N 0
30 Agosto 2026 07:10 tempo osservato: Sereno Sereno 21 100 1020 vento: Nord N 0
30 Agosto 2026 06:50 tempo osservato: Sereno Sereno 20 100 1019 vento: Nord N 0
30 Agosto 2026 06:35 tempo osservato: Sereno Sereno 20 100 1019 vento: Nord N 0
30 Agosto 2026 06:10 tempo osservato: Sereno Sereno 20 100 1019 vento: Nord N 0
30 Agosto 2026 05:50 tempo osservato: Sereno Sereno 20 100 1019 vento: Nord N 0
30 Agosto 2026 05:35 tempo osservato: Sereno Sereno 20 100 1019 vento: Nord N 0
30 Agosto 2026 05:10 tempo osservato: Sereno Sereno 20 100 1019 vento: Nord N 0
30 Agosto 2026 04:50 tempo osservato: Sereno Sereno 20 100 1018 vento: Nord N 0
30 Agosto 2026 04:35 tempo osservato: Sereno Sereno 20 100 1018 vento: Nord N 0
30 Agosto 2026 04:10 tempo osservato: Sereno Sereno 20 100 1018 vento: Nord N 0
30 Agosto 2026 03:50 tempo osservato: Sereno Sereno 20 0 1018 vento: Nord N 0
30 Agosto 2026 03:35 tempo osservato: Sereno Sereno 20 100 1018 vento: Nord N 0
30 Agosto 2026 03:10 tempo osservato: Sereno Sereno 20 100 1018 vento: Nord N 0
30 Agosto 2026 02:50 tempo osservato: Sereno Sereno 20 100 1018 vento: Nord N 0
30 Agosto 2026 02:35 tempo osservato: Sereno Sereno 20 0 1018 vento: Nord N 0
30 Agosto 2026 02:10 tempo osservato: Nuvoloso Nuvoloso 20 0 1019 vento: Nord N 0
30 Agosto 2026 01:50 tempo osservato: Poco Nuvoloso Poco Nuvoloso 21 100 1018 vento: Nord N 0
30 Agosto 2026 01:35 tempo osservato: Sereno Sereno 21 100 1019 vento: Nord N 0